Index of /20260504/WXO-DD/model_gdps/15km/12/015
Name Last modified Size Description
Parent Directory -
20260504T12Z_MSC_GDPS_AbsoluteVorticity_IsbL-0200_LatLon0.15_PT015H.grib2 2026-05-04 16:08 1.5M
20260504T12Z_MSC_GDPS_AbsoluteVorticity_IsbL-0250_LatLon0.15_PT015H.grib2 2026-05-04 16:08 1.3M
20260504T12Z_MSC_GDPS_AbsoluteVorticity_IsbL-0500_LatLon0.15_PT015H.grib2 2026-05-04 16:08 1.4M
20260504T12Z_MSC_GDPS_AbsoluteVorticity_IsbL-0700_LatLon0.15_PT015H.grib2 2026-05-04 16:08 1.3M
20260504T12Z_MSC_GDPS_AbsoluteVorticity_IsbL-0850_LatLon0.15_PT015H.grib2 2026-05-04 16:08 1.6M
20260504T12Z_MSC_GDPS_AirTemp_AGL-120m_LatLon0.15_PT015H.grib2 2026-05-04 16:08 897K
20260504T12Z_MSC_GDPS_AirTemp_AGL-2m_LatLon0.15_PT015H.grib2 2026-05-04 16:08 1.0M
20260504T12Z_MSC_GDPS_AirTemp_AGL-40m_LatLon0.15_PT015H.grib2 2026-05-04 16:08 800K
20260504T12Z_MSC_GDPS_AirTemp_AGL-80m_LatLon0.15_PT015H.grib2 2026-05-04 16:08 905K
20260504T12Z_MSC_GDPS_AirTemp_IsbL-0001_LatLon0.15_PT015H.grib2 2026-05-04 16:08 664K
20260504T12Z_MSC_GDPS_AirTemp_IsbL-0005_LatLon0.15_PT015H.grib2 2026-05-04 16:08 692K
20260504T12Z_MSC_GDPS_AirTemp_IsbL-0010_LatLon0.15_PT015H.grib2 2026-05-04 16:08 701K
20260504T12Z_MSC_GDPS_AirTemp_IsbL-0020_LatLon0.15_PT015H.grib2 2026-05-04 16:08 789K
20260504T12Z_MSC_GDPS_AirTemp_IsbL-0030_LatLon0.15_PT015H.grib2 2026-05-04 16:08 839K
20260504T12Z_MSC_GDPS_AirTemp_IsbL-0050_LatLon0.15_PT015H.grib2 2026-05-04 16:08 812K
20260504T12Z_MSC_GDPS_AirTemp_IsbL-0100_LatLon0.15_PT015H.grib2 2026-05-04 16:08 959K
20260504T12Z_MSC_GDPS_AirTemp_IsbL-0150_LatLon0.15_PT015H.grib2 2026-05-04 16:08 968K
20260504T12Z_MSC_GDPS_AirTemp_IsbL-0175_LatLon0.15_PT015H.grib2 2026-05-04 16:08 957K
20260504T12Z_MSC_GDPS_AirTemp_IsbL-0200_LatLon0.15_PT015H.grib2 2026-05-04 16:08 968K
20260504T12Z_MSC_GDPS_AirTemp_IsbL-0225_LatLon0.15_PT015H.grib2 2026-05-04 16:08 973K
20260504T12Z_MSC_GDPS_AirTemp_IsbL-0250_LatLon0.15_PT015H.grib2 2026-05-04 16:08 1.0M
20260504T12Z_MSC_GDPS_AirTemp_IsbL-0275_LatLon0.15_PT015H.grib2 2026-05-04 16:08 1.0M
20260504T12Z_MSC_GDPS_AirTemp_IsbL-0300_LatLon0.15_PT015H.grib2 2026-05-04 16:08 1.0M
20260504T12Z_MSC_GDPS_AirTemp_IsbL-0350_LatLon0.15_PT015H.grib2 2026-05-04 16:08 930K
20260504T12Z_MSC_GDPS_AirTemp_IsbL-0400_LatLon0.15_PT015H.grib2 2026-05-04 16:08 941K
20260504T12Z_MSC_GDPS_AirTemp_IsbL-0450_LatLon0.15_PT015H.grib2 2026-05-04 16:08 963K
20260504T12Z_MSC_GDPS_AirTemp_IsbL-0500_LatLon0.15_PT015H.grib2 2026-05-04 16:08 1.0M
20260504T12Z_MSC_GDPS_AirTemp_IsbL-0550_LatLon0.15_PT015H.grib2 2026-05-04 16:08 1.0M
20260504T12Z_MSC_GDPS_AirTemp_IsbL-0600_LatLon0.15_PT015H.grib2 2026-05-04 16:08 883K
20260504T12Z_MSC_GDPS_AirTemp_IsbL-0650_LatLon0.15_PT015H.grib2 2026-05-04 16:08 910K
20260504T12Z_MSC_GDPS_AirTemp_IsbL-0700_LatLon0.15_PT015H.grib2 2026-05-04 16:08 944K
20260504T12Z_MSC_GDPS_AirTemp_IsbL-0750_LatLon0.15_PT015H.grib2 2026-05-04 16:08 1.0M
20260504T12Z_MSC_GDPS_AirTemp_IsbL-0800_LatLon0.15_PT015H.grib2 2026-05-04 16:08 1.1M
20260504T12Z_MSC_GDPS_AirTemp_IsbL-0850_LatLon0.15_PT015H.grib2 2026-05-04 16:08 1.1M
20260504T12Z_MSC_GDPS_AirTemp_IsbL-0875_LatLon0.15_PT015H.grib2 2026-05-04 16:08 1.1M
20260504T12Z_MSC_GDPS_AirTemp_IsbL-0900_LatLon0.15_PT015H.grib2 2026-05-04 16:08 1.1M
20260504T12Z_MSC_GDPS_AirTemp_IsbL-0925_LatLon0.15_PT015H.grib2 2026-05-04 16:08 1.1M
20260504T12Z_MSC_GDPS_AirTemp_IsbL-0950_LatLon0.15_PT015H.grib2 2026-05-04 16:08 1.1M
20260504T12Z_MSC_GDPS_AirTemp_IsbL-0970_LatLon0.15_PT015H.grib2 2026-05-04 16:08 1.1M
20260504T12Z_MSC_GDPS_AirTemp_IsbL-0985_LatLon0.15_PT015H.grib2 2026-05-04 16:08 1.1M
20260504T12Z_MSC_GDPS_AirTemp_IsbL-1000_LatLon0.15_PT015H.grib2 2026-05-04 16:08 1.1M
20260504T12Z_MSC_GDPS_AirTemp_IsbL-1015_LatLon0.15_PT015H.grib2 2026-05-04 16:08 1.1M
20260504T12Z_MSC_GDPS_Albedo_Sfc_LatLon0.15_PT015H.grib2 2026-05-04 16:08 242K
20260504T12Z_MSC_GDPS_CAPE_Sfc_LatLon0.15_PT015H.grib2 2026-05-04 16:08 4.0M
20260504T12Z_MSC_GDPS_CIN_Sfc_LatLon0.15_PT015H.grib2 2026-05-04 16:08 2.8M
20260504T12Z_MSC_GDPS_CloudWater_EAtm_LatLon0.15_PT015H.grib2 2026-05-04 16:08 523K
20260504T12Z_MSC_GDPS_ConvectivePrecip-Accum_Sfc_LatLon0.15_PT015H.grib2 2026-05-04 16:08 2.1M
20260504T12Z_MSC_GDPS_DewPointDepression_AGL-2m_LatLon0.15_PT015H.grib2 2026-05-04 16:08 766K
20260504T12Z_MSC_GDPS_DewPointDepression_IsbL-0010_LatLon0.15_PT015H.grib2 2026-05-04 16:08 79K
20260504T12Z_MSC_GDPS_DewPointDepression_IsbL-0020_LatLon0.15_PT015H.grib2 2026-05-04 16:08 73K
20260504T12Z_MSC_GDPS_DewPointDepression_IsbL-0030_LatLon0.15_PT015H.grib2 2026-05-04 16:08 87K
20260504T12Z_MSC_GDPS_DewPointDepression_IsbL-0050_LatLon0.15_PT015H.grib2 2026-05-04 16:08 386K
20260504T12Z_MSC_GDPS_DewPointDepression_IsbL-0100_LatLon0.15_PT015H.grib2 2026-05-04 16:08 406K
20260504T12Z_MSC_GDPS_DewPointDepression_IsbL-0150_LatLon0.15_PT015H.grib2 2026-05-04 16:08 480K
20260504T12Z_MSC_GDPS_DewPointDepression_IsbL-0175_LatLon0.15_PT015H.grib2 2026-05-04 16:08 586K
20260504T12Z_MSC_GDPS_DewPointDepression_IsbL-0200_LatLon0.15_PT015H.grib2 2026-05-04 16:08 687K
20260504T12Z_MSC_GDPS_DewPointDepression_IsbL-0225_LatLon0.15_PT015H.grib2 2026-05-04 16:08 783K
20260504T12Z_MSC_GDPS_DewPointDepression_IsbL-0250_LatLon0.15_PT015H.grib2 2026-05-04 16:08 872K
20260504T12Z_MSC_GDPS_DewPointDepression_IsbL-0275_LatLon0.15_PT015H.grib2 2026-05-04 16:08 891K
20260504T12Z_MSC_GDPS_DewPointDepression_IsbL-0300_LatLon0.15_PT015H.grib2 2026-05-04 16:08 931K
20260504T12Z_MSC_GDPS_DewPointDepression_IsbL-0350_LatLon0.15_PT015H.grib2 2026-05-04 16:08 954K
20260504T12Z_MSC_GDPS_DewPointDepression_IsbL-0400_LatLon0.15_PT015H.grib2 2026-05-04 16:08 1.0M
20260504T12Z_MSC_GDPS_DewPointDepression_IsbL-0450_LatLon0.15_PT015H.grib2 2026-05-04 16:08 1.0M
20260504T12Z_MSC_GDPS_DewPointDepression_IsbL-0500_LatLon0.15_PT015H.grib2 2026-05-04 16:08 1.0M
20260504T12Z_MSC_GDPS_DewPointDepression_IsbL-0550_LatLon0.15_PT015H.grib2 2026-05-04 16:08 1.0M
20260504T12Z_MSC_GDPS_DewPointDepression_IsbL-0600_LatLon0.15_PT015H.grib2 2026-05-04 16:08 1.0M
20260504T12Z_MSC_GDPS_DewPointDepression_IsbL-0650_LatLon0.15_PT015H.grib2 2026-05-04 16:08 1.0M
20260504T12Z_MSC_GDPS_DewPointDepression_IsbL-0700_LatLon0.15_PT015H.grib2 2026-05-04 16:08 1.1M
20260504T12Z_MSC_GDPS_DewPointDepression_IsbL-0750_LatLon0.15_PT015H.grib2 2026-05-04 16:08 1.1M
20260504T12Z_MSC_GDPS_DewPointDepression_IsbL-0800_LatLon0.15_PT015H.grib2 2026-05-04 16:08 1.1M
20260504T12Z_MSC_GDPS_DewPointDepression_IsbL-0850_LatLon0.15_PT015H.grib2 2026-05-04 16:08 1.1M
20260504T12Z_MSC_GDPS_DewPointDepression_IsbL-0875_LatLon0.15_PT015H.grib2 2026-05-04 16:08 1.1M
20260504T12Z_MSC_GDPS_DewPointDepression_IsbL-0900_LatLon0.15_PT015H.grib2 2026-05-04 16:08 1.0M
20260504T12Z_MSC_GDPS_DewPointDepression_IsbL-0925_LatLon0.15_PT015H.grib2 2026-05-04 16:08 1.0M
20260504T12Z_MSC_GDPS_DewPointDepression_IsbL-0950_LatLon0.15_PT015H.grib2 2026-05-04 16:08 1.0M
20260504T12Z_MSC_GDPS_DewPointDepression_IsbL-0970_LatLon0.15_PT015H.grib2 2026-05-04 16:08 1.0M
20260504T12Z_MSC_GDPS_DewPointDepression_IsbL-0985_LatLon0.15_PT015H.grib2 2026-05-04 16:08 1.0M
20260504T12Z_MSC_GDPS_DewPointDepression_IsbL-1000_LatLon0.15_PT015H.grib2 2026-05-04 16:08 971K
20260504T12Z_MSC_GDPS_DewPointDepression_IsbL-1015_LatLon0.15_PT015H.grib2 2026-05-04 16:08 915K
20260504T12Z_MSC_GDPS_DewPoint_AGL-2m_LatLon0.15_PT015H.grib2 2026-05-04 16:08 596K
20260504T12Z_MSC_GDPS_DownwardLongwaveRadiationFlux-Accum_Sfc_LatLon0.15_PT015H.grib2 2026-05-04 16:08 822K
20260504T12Z_MSC_GDPS_DownwardShortwaveRadiationFlux-Accum_NTAtm_LatLon0.15_PT015H.grib2 2026-05-04 16:08 364K
20260504T12Z_MSC_GDPS_DownwardShortwaveRadiationFlux-Accum_Sfc_LatLon0.15_PT015H.grib2 2026-05-04 16:08 1.0M
20260504T12Z_MSC_GDPS_FreezingRain-Accum1h_Sfc_LatLon0.15_PT015H.grib2 2026-05-04 16:08 33K
20260504T12Z_MSC_GDPS_FreezingRain-Accum3h_Sfc_LatLon0.15_PT015H.grib2 2026-05-04 16:08 35K
20260504T12Z_MSC_GDPS_FreezingRain-Accum_Sfc_LatLon0.15_PT015H.grib2 2026-05-04 16:08 122K
20260504T12Z_MSC_GDPS_GeopotentialHeight_IsbL-0001_LatLon0.15_PT015H.grib2 2026-05-04 16:08 439K
20260504T12Z_MSC_GDPS_GeopotentialHeight_IsbL-0005_LatLon0.15_PT015H.grib2 2026-05-04 16:08 488K
20260504T12Z_MSC_GDPS_GeopotentialHeight_IsbL-0010_LatLon0.15_PT015H.grib2 2026-05-04 16:08 477K
20260504T12Z_MSC_GDPS_GeopotentialHeight_IsbL-0020_LatLon0.15_PT015H.grib2 2026-05-04 16:08 413K
20260504T12Z_MSC_GDPS_GeopotentialHeight_IsbL-0030_LatLon0.15_PT015H.grib2 2026-05-04 16:08 567K
20260504T12Z_MSC_GDPS_GeopotentialHeight_IsbL-0050_LatLon0.15_PT015H.grib2 2026-05-04 16:08 570K
20260504T12Z_MSC_GDPS_GeopotentialHeight_IsbL-0100_LatLon0.15_PT015H.grib2 2026-05-04 16:08 605K
20260504T12Z_MSC_GDPS_GeopotentialHeight_IsbL-0150_LatLon0.15_PT015H.grib2 2026-05-04 16:08 621K
20260504T12Z_MSC_GDPS_GeopotentialHeight_IsbL-0175_LatLon0.15_PT015H.grib2 2026-05-04 16:08 625K
20260504T12Z_MSC_GDPS_GeopotentialHeight_IsbL-0200_LatLon0.15_PT015H.grib2 2026-05-04 16:08 630K
20260504T12Z_MSC_GDPS_GeopotentialHeight_IsbL-0225_LatLon0.15_PT015H.grib2 2026-05-04 16:08 629K
20260504T12Z_MSC_GDPS_GeopotentialHeight_IsbL-0250_LatLon0.15_PT015H.grib2 2026-05-04 16:08 640K
20260504T12Z_MSC_GDPS_GeopotentialHeight_IsbL-0275_LatLon0.15_PT015H.grib2 2026-05-04 16:08 639K
20260504T12Z_MSC_GDPS_GeopotentialHeight_IsbL-0300_LatLon0.15_PT015H.grib2 2026-05-04 16:08 639K
20260504T12Z_MSC_GDPS_GeopotentialHeight_IsbL-0350_LatLon0.15_PT015H.grib2 2026-05-04 16:08 627K
20260504T12Z_MSC_GDPS_GeopotentialHeight_IsbL-0400_LatLon0.15_PT015H.grib2 2026-05-04 16:08 620K
20260504T12Z_MSC_GDPS_GeopotentialHeight_IsbL-0450_LatLon0.15_PT015H.grib2 2026-05-04 16:08 610K
20260504T12Z_MSC_GDPS_GeopotentialHeight_IsbL-0500_LatLon0.15_PT015H.grib2 2026-05-04 16:08 603K
20260504T12Z_MSC_GDPS_GeopotentialHeight_IsbL-0550_LatLon0.15_PT015H.grib2 2026-05-04 16:08 523K
20260504T12Z_MSC_GDPS_GeopotentialHeight_IsbL-0600_LatLon0.15_PT015H.grib2 2026-05-04 16:08 521K
20260504T12Z_MSC_GDPS_GeopotentialHeight_IsbL-0650_LatLon0.15_PT015H.grib2 2026-05-04 16:08 688K
20260504T12Z_MSC_GDPS_GeopotentialHeight_IsbL-0700_LatLon0.15_PT015H.grib2 2026-05-04 16:08 683K
20260504T12Z_MSC_GDPS_GeopotentialHeight_IsbL-0750_LatLon0.15_PT015H.grib2 2026-05-04 16:08 692K
20260504T12Z_MSC_GDPS_GeopotentialHeight_IsbL-0800_LatLon0.15_PT015H.grib2 2026-05-04 16:08 702K
20260504T12Z_MSC_GDPS_GeopotentialHeight_IsbL-0850_LatLon0.15_PT015H.grib2 2026-05-04 16:08 707K
20260504T12Z_MSC_GDPS_GeopotentialHeight_IsbL-0875_LatLon0.15_PT015H.grib2 2026-05-04 16:08 713K
20260504T12Z_MSC_GDPS_GeopotentialHeight_IsbL-0900_LatLon0.15_PT015H.grib2 2026-05-04 16:08 722K
20260504T12Z_MSC_GDPS_GeopotentialHeight_IsbL-0925_LatLon0.15_PT015H.grib2 2026-05-04 16:08 731K
20260504T12Z_MSC_GDPS_GeopotentialHeight_IsbL-0950_LatLon0.15_PT015H.grib2 2026-05-04 16:08 735K
20260504T12Z_MSC_GDPS_GeopotentialHeight_IsbL-0970_LatLon0.15_PT015H.grib2 2026-05-04 16:08 749K
20260504T12Z_MSC_GDPS_GeopotentialHeight_IsbL-0985_LatLon0.15_PT015H.grib2 2026-05-04 16:08 763K
20260504T12Z_MSC_GDPS_GeopotentialHeight_IsbL-1000_LatLon0.15_PT015H.grib2 2026-05-04 16:08 782K
20260504T12Z_MSC_GDPS_GeopotentialHeight_IsbL-1015_LatLon0.15_PT015H.grib2 2026-05-04 16:08 804K
20260504T12Z_MSC_GDPS_Humidex_Sfc_LatLon0.15_PT015H.grib2 2026-05-04 16:08 5.3M
20260504T12Z_MSC_GDPS_IcePellets-Accum1h_Sfc_LatLon0.15_PT015H.grib2 2026-05-04 16:08 12K
20260504T12Z_MSC_GDPS_IcePellets-Accum3h_Sfc_LatLon0.15_PT015H.grib2 2026-05-04 16:08 14K
20260504T12Z_MSC_GDPS_IcePellets-Accum_Sfc_LatLon0.15_PT015H.grib2 2026-05-04 16:08 35K
20260504T12Z_MSC_GDPS_KIndex_Sfc_LatLon0.15_PT015H.grib2 2026-05-04 16:08 6.4M
20260504T12Z_MSC_GDPS_LatentHeatNetFlux_Sfc_LatLon0.15_PT015H.grib2 2026-05-04 16:08 898K
20260504T12Z_MSC_GDPS_LiftedIndex-MU-VT_IsbL-0500_LatLon0.15_PT015H.grib2 2026-05-04 16:08 5.4M
20260504T12Z_MSC_GDPS_NetLongwaveRadiationFlux-Accum_Sfc_LatLon0.15_PT015H.grib2 2026-05-04 16:08 1.1M
20260504T12Z_MSC_GDPS_NetShortwaveRadiationFlux-Accum_Sfc_LatLon0.15_PT015H.grib2 2026-05-04 16:08 969K
20260504T12Z_MSC_GDPS_O3MixingRatio_Sfc_LatLon0.15_PT015H.grib2 2026-05-04 17:16 2.0M
20260504T12Z_MSC_GDPS_O3_EAtm_LatLon0.15_PT015H.grib2 2026-05-04 17:16 2.5M
20260504T12Z_MSC_GDPS_PlanetaryBoundaryLayerHeight_Sfc_LatLon0.15_PT015H.grib2 2026-05-04 16:08 2.4M
20260504T12Z_MSC_GDPS_Precip-Accum1h_Sfc_LatLon0.15_PT015H.grib2 2026-05-04 16:08 3.1M
20260504T12Z_MSC_GDPS_Precip-Accum3h_Sfc_LatLon0.15_PT015H.grib2 2026-05-04 16:08 3.4M
20260504T12Z_MSC_GDPS_Precip-Accum_Sfc_LatLon0.15_PT015H.grib2 2026-05-04 16:08 4.3M
20260504T12Z_MSC_GDPS_PrecipRate_Sfc_LatLon0.15_PT015H.grib2 2026-05-04 16:08 3.0M
20260504T12Z_MSC_GDPS_PrecipType-Instant_Sfc_LatLon0.15_PT015H.grib2 2026-05-04 16:08 1.5M
20260504T12Z_MSC_GDPS_Pressure_MSL_LatLon0.15_PT015H.grib2 2026-05-04 16:08 825K
20260504T12Z_MSC_GDPS_Pressure_PVU-1.5_LatLon0.15_PT015H.grib2 2026-05-04 16:08 5.8M
20260504T12Z_MSC_GDPS_Pressure_PVU-1_LatLon0.15_PT015H.grib2 2026-05-04 16:08 6.0M
20260504T12Z_MSC_GDPS_Pressure_PVU-2_LatLon0.15_PT015H.grib2 2026-05-04 16:08 6.0M
20260504T12Z_MSC_GDPS_Pressure_Sfc_LatLon0.15_PT015H.grib2 2026-05-04 16:08 1.1M
20260504T12Z_MSC_GDPS_RadiativeTemp_Sfc_LatLon0.15_PT015H.grib2 2026-05-04 16:08 657K
20260504T12Z_MSC_GDPS_Rain-Accum1h_Sfc_LatLon0.15_PT015H.grib2 2026-05-04 16:08 1.6M
20260504T12Z_MSC_GDPS_Rain-Accum3h_Sfc_LatLon0.15_PT015H.grib2 2026-05-04 16:08 1.6M
20260504T12Z_MSC_GDPS_Rain-Accum_Sfc_LatLon0.15_PT015H.grib2 2026-05-04 16:08 3.1M
20260504T12Z_MSC_GDPS_RelativeHumidity_AGL-2m_LatLon0.15_PT015H.grib2 2026-05-04 16:08 1.1M
20260504T12Z_MSC_GDPS_RelativeHumidity_IsbL-0010_LatLon0.15_PT015H.grib2 2026-05-04 16:08 218K
20260504T12Z_MSC_GDPS_RelativeHumidity_IsbL-0020_LatLon0.15_PT015H.grib2 2026-05-04 16:08 181K
20260504T12Z_MSC_GDPS_RelativeHumidity_IsbL-0030_LatLon0.15_PT015H.grib2 2026-05-04 16:08 278K
20260504T12Z_MSC_GDPS_RelativeHumidity_IsbL-0050_LatLon0.15_PT015H.grib2 2026-05-04 16:08 528K
20260504T12Z_MSC_GDPS_RelativeHumidity_IsbL-0100_LatLon0.15_PT015H.grib2 2026-05-04 16:08 518K
20260504T12Z_MSC_GDPS_RelativeHumidity_IsbL-0150_LatLon0.15_PT015H.grib2 2026-05-04 16:08 665K
20260504T12Z_MSC_GDPS_RelativeHumidity_IsbL-0175_LatLon0.15_PT015H.grib2 2026-05-04 16:08 592K
20260504T12Z_MSC_GDPS_RelativeHumidity_IsbL-0200_LatLon0.15_PT015H.grib2 2026-05-04 16:08 699K
20260504T12Z_MSC_GDPS_RelativeHumidity_IsbL-0225_LatLon0.15_PT015H.grib2 2026-05-04 16:08 781K
20260504T12Z_MSC_GDPS_RelativeHumidity_IsbL-0250_LatLon0.15_PT015H.grib2 2026-05-04 16:08 861K
20260504T12Z_MSC_GDPS_RelativeHumidity_IsbL-0275_LatLon0.15_PT015H.grib2 2026-05-04 16:08 885K
20260504T12Z_MSC_GDPS_RelativeHumidity_IsbL-0300_LatLon0.15_PT015H.grib2 2026-05-04 16:08 928K
20260504T12Z_MSC_GDPS_RelativeHumidity_IsbL-0350_LatLon0.15_PT015H.grib2 2026-05-04 16:08 948K
20260504T12Z_MSC_GDPS_RelativeHumidity_IsbL-0400_LatLon0.15_PT015H.grib2 2026-05-04 16:08 1.0M
20260504T12Z_MSC_GDPS_RelativeHumidity_IsbL-0450_LatLon0.15_PT015H.grib2 2026-05-04 16:08 1.0M
20260504T12Z_MSC_GDPS_RelativeHumidity_IsbL-0500_LatLon0.15_PT015H.grib2 2026-05-04 16:08 1.0M
20260504T12Z_MSC_GDPS_RelativeHumidity_IsbL-0550_LatLon0.15_PT015H.grib2 2026-05-04 16:08 1.1M
20260504T12Z_MSC_GDPS_RelativeHumidity_IsbL-0600_LatLon0.15_PT015H.grib2 2026-05-04 16:08 1.1M
20260504T12Z_MSC_GDPS_RelativeHumidity_IsbL-0650_LatLon0.15_PT015H.grib2 2026-05-04 16:08 1.1M
20260504T12Z_MSC_GDPS_RelativeHumidity_IsbL-0700_LatLon0.15_PT015H.grib2 2026-05-04 16:08 1.1M
20260504T12Z_MSC_GDPS_RelativeHumidity_IsbL-0750_LatLon0.15_PT015H.grib2 2026-05-04 16:08 1.2M
20260504T12Z_MSC_GDPS_RelativeHumidity_IsbL-0800_LatLon0.15_PT015H.grib2 2026-05-04 16:08 1.2M
20260504T12Z_MSC_GDPS_RelativeHumidity_IsbL-0850_LatLon0.15_PT015H.grib2 2026-05-04 16:08 1.3M
20260504T12Z_MSC_GDPS_RelativeHumidity_IsbL-0875_LatLon0.15_PT015H.grib2 2026-05-04 16:08 1.3M
20260504T12Z_MSC_GDPS_RelativeHumidity_IsbL-0900_LatLon0.15_PT015H.grib2 2026-05-04 16:08 1.2M
20260504T12Z_MSC_GDPS_RelativeHumidity_IsbL-0925_LatLon0.15_PT015H.grib2 2026-05-04 16:08 1.2M
20260504T12Z_MSC_GDPS_RelativeHumidity_IsbL-0950_LatLon0.15_PT015H.grib2 2026-05-04 16:08 1.2M
20260504T12Z_MSC_GDPS_RelativeHumidity_IsbL-0970_LatLon0.15_PT015H.grib2 2026-05-04 16:08 1.2M
20260504T12Z_MSC_GDPS_RelativeHumidity_IsbL-0985_LatLon0.15_PT015H.grib2 2026-05-04 16:08 1.1M
20260504T12Z_MSC_GDPS_RelativeHumidity_IsbL-1000_LatLon0.15_PT015H.grib2 2026-05-04 16:08 1.1M
20260504T12Z_MSC_GDPS_RelativeHumidity_IsbL-1015_LatLon0.15_PT015H.grib2 2026-05-04 16:08 1.0M
20260504T12Z_MSC_GDPS_RelativeVorticity_IsbL-0200_LatLon0.15_PT015H.grib2 2026-05-04 16:08 1.5M
20260504T12Z_MSC_GDPS_RelativeVorticity_IsbL-0250_LatLon0.15_PT015H.grib2 2026-05-04 16:08 1.6M
20260504T12Z_MSC_GDPS_RelativeVorticity_IsbL-0500_LatLon0.15_PT015H.grib2 2026-05-04 16:08 1.4M
20260504T12Z_MSC_GDPS_RelativeVorticity_IsbL-0700_LatLon0.15_PT015H.grib2 2026-05-04 16:08 1.3M
20260504T12Z_MSC_GDPS_RelativeVorticity_IsbL-0850_LatLon0.15_PT015H.grib2 2026-05-04 16:08 1.6M
20260504T12Z_MSC_GDPS_Runoff-Accum_Sfc_LatLon0.15_PT015H.grib2 2026-05-04 16:08 88K
20260504T12Z_MSC_GDPS_SensibleHeatNetFlux_Sfc_LatLon0.15_PT015H.grib2 2026-05-04 16:08 630K
20260504T12Z_MSC_GDPS_ShowalterIndex_IsbL-0500_LatLon0.15_PT015H.grib2 2026-05-04 16:08 6.1M
20260504T12Z_MSC_GDPS_Snow-Accum1h_Sfc_LatLon0.15_PT015H.grib2 2026-05-04 16:08 1.0M
20260504T12Z_MSC_GDPS_Snow-Accum3h_Sfc_LatLon0.15_PT015H.grib2 2026-05-04 16:08 972K
20260504T12Z_MSC_GDPS_Snow-Accum_Sfc_LatLon0.15_PT015H.grib2 2026-05-04 16:08 1.6M
20260504T12Z_MSC_GDPS_SnowDensity_Sfc_LatLon0.15_PT015H.grib2 2026-05-04 16:08 249K
20260504T12Z_MSC_GDPS_SnowDepth_Sfc_LatLon0.15_PT015H.grib2 2026-05-04 16:08 1.7M
20260504T12Z_MSC_GDPS_SoilTemp_DBS-0to10cm_LatLon0.15_PT015H.grib2 2026-05-04 16:08 497K
20260504T12Z_MSC_GDPS_SoilTemp_Sfc_LatLon0.15_PT015H.grib2 2026-05-04 16:08 576K
20260504T12Z_MSC_GDPS_SoilVolumetricIceContent_Sfc_LatLon0.15_PT015H.grib2 2026-05-04 16:08 193K
20260504T12Z_MSC_GDPS_SoilVolumetricWaterContent_DBS-0to10cm_LatLon0.15_PT015H.grib2 2026-05-04 16:08 590K
20260504T12Z_MSC_GDPS_SoilVolumetricWaterContent_DBS-0to1cm_LatLon0.15_PT015H.grib2 2026-05-04 16:08 651K
20260504T12Z_MSC_GDPS_SpecificHumidity_AGL-120m_LatLon0.15_PT015H.grib2 2026-05-04 16:08 1.1M
20260504T12Z_MSC_GDPS_SpecificHumidity_AGL-2m_LatLon0.15_PT015H.grib2 2026-05-04 16:08 1.2M
20260504T12Z_MSC_GDPS_SpecificHumidity_AGL-40m_LatLon0.15_PT015H.grib2 2026-05-04 16:08 1.1M
20260504T12Z_MSC_GDPS_SpecificHumidity_AGL-80m_LatLon0.15_PT015H.grib2 2026-05-04 16:08 1.1M
20260504T12Z_MSC_GDPS_SpecificHumidity_IsbL-0001_LatLon0.15_PT015H.grib2 2026-05-04 16:08 1.1M
20260504T12Z_MSC_GDPS_SpecificHumidity_IsbL-0005_LatLon0.15_PT015H.grib2 2026-05-04 16:08 1.3M
20260504T12Z_MSC_GDPS_SpecificHumidity_IsbL-0010_LatLon0.15_PT015H.grib2 2026-05-04 16:08 1.4M
20260504T12Z_MSC_GDPS_SpecificHumidity_IsbL-0020_LatLon0.15_PT015H.grib2 2026-05-04 16:08 1.4M
20260504T12Z_MSC_GDPS_SpecificHumidity_IsbL-0030_LatLon0.15_PT015H.grib2 2026-05-04 16:08 1.4M
20260504T12Z_MSC_GDPS_SpecificHumidity_IsbL-0050_LatLon0.15_PT015H.grib2 2026-05-04 16:08 1.4M
20260504T12Z_MSC_GDPS_SpecificHumidity_IsbL-0100_LatLon0.15_PT015H.grib2 2026-05-04 16:08 1.4M
20260504T12Z_MSC_GDPS_SpecificHumidity_IsbL-0150_LatLon0.15_PT015H.grib2 2026-05-04 16:08 1.3M
20260504T12Z_MSC_GDPS_SpecificHumidity_IsbL-0175_LatLon0.15_PT015H.grib2 2026-05-04 16:08 1.3M
20260504T12Z_MSC_GDPS_SpecificHumidity_IsbL-0200_LatLon0.15_PT015H.grib2 2026-05-04 16:08 1.3M
20260504T12Z_MSC_GDPS_SpecificHumidity_IsbL-0225_LatLon0.15_PT015H.grib2 2026-05-04 16:08 1.3M
20260504T12Z_MSC_GDPS_SpecificHumidity_IsbL-0250_LatLon0.15_PT015H.grib2 2026-05-04 16:08 1.4M
20260504T12Z_MSC_GDPS_SpecificHumidity_IsbL-0275_LatLon0.15_PT015H.grib2 2026-05-04 16:08 1.3M
20260504T12Z_MSC_GDPS_SpecificHumidity_IsbL-0300_LatLon0.15_PT015H.grib2 2026-05-04 16:08 1.2M
20260504T12Z_MSC_GDPS_SpecificHumidity_IsbL-0350_LatLon0.15_PT015H.grib2 2026-05-04 16:08 1.2M
20260504T12Z_MSC_GDPS_SpecificHumidity_IsbL-0400_LatLon0.15_PT015H.grib2 2026-05-04 16:08 1.5M
20260504T12Z_MSC_GDPS_SpecificHumidity_IsbL-0450_LatLon0.15_PT015H.grib2 2026-05-04 16:08 1.6M
20260504T12Z_MSC_GDPS_SpecificHumidity_IsbL-0500_LatLon0.15_PT015H.grib2 2026-05-04 16:08 1.4M
20260504T12Z_MSC_GDPS_SpecificHumidity_IsbL-0550_LatLon0.15_PT015H.grib2 2026-05-04 16:08 1.6M
20260504T12Z_MSC_GDPS_SpecificHumidity_IsbL-0600_LatLon0.15_PT015H.grib2 2026-05-04 16:08 1.7M
20260504T12Z_MSC_GDPS_SpecificHumidity_IsbL-0650_LatLon0.15_PT015H.grib2 2026-05-04 16:08 1.5M
20260504T12Z_MSC_GDPS_SpecificHumidity_IsbL-0700_LatLon0.15_PT015H.grib2 2026-05-04 16:08 1.6M
20260504T12Z_MSC_GDPS_SpecificHumidity_IsbL-0750_LatLon0.15_PT015H.grib2 2026-05-04 16:08 1.7M
20260504T12Z_MSC_GDPS_SpecificHumidity_IsbL-0800_LatLon0.15_PT015H.grib2 2026-05-04 16:08 1.8M
20260504T12Z_MSC_GDPS_SpecificHumidity_IsbL-0850_LatLon0.15_PT015H.grib2 2026-05-04 16:08 1.9M
20260504T12Z_MSC_GDPS_SpecificHumidity_IsbL-0875_LatLon0.15_PT015H.grib2 2026-05-04 16:08 1.9M
20260504T12Z_MSC_GDPS_SpecificHumidity_IsbL-0900_LatLon0.15_PT015H.grib2 2026-05-04 16:08 1.9M
20260504T12Z_MSC_GDPS_SpecificHumidity_IsbL-0925_LatLon0.15_PT015H.grib2 2026-05-04 16:08 1.9M
20260504T12Z_MSC_GDPS_SpecificHumidity_IsbL-0950_LatLon0.15_PT015H.grib2 2026-05-04 16:08 1.5M
20260504T12Z_MSC_GDPS_SpecificHumidity_IsbL-0970_LatLon0.15_PT015H.grib2 2026-05-04 16:08 1.5M
20260504T12Z_MSC_GDPS_SpecificHumidity_IsbL-0985_LatLon0.15_PT015H.grib2 2026-05-04 16:08 1.5M
20260504T12Z_MSC_GDPS_SpecificHumidity_IsbL-1000_LatLon0.15_PT015H.grib2 2026-05-04 16:08 1.5M
20260504T12Z_MSC_GDPS_SpecificHumidity_IsbL-1015_LatLon0.15_PT015H.grib2 2026-05-04 16:08 1.4M
20260504T12Z_MSC_GDPS_SpecificHumidity_Sfc_LatLon0.15_PT015H.grib2 2026-05-04 16:08 631K
20260504T12Z_MSC_GDPS_Thickness_IsbL-0850to0700_LatLon0.15_PT015H.grib2 2026-05-04 16:08 465K
20260504T12Z_MSC_GDPS_Thickness_IsbL-1000to0500_LatLon0.15_PT015H.grib2 2026-05-04 16:08 372K
20260504T12Z_MSC_GDPS_Thickness_IsbL-1000to0850_LatLon0.15_PT015H.grib2 2026-05-04 16:08 486K
20260504T12Z_MSC_GDPS_TotalCloudCover_Sfc_LatLon0.15_PT015H.grib2 2026-05-04 16:08 824K
20260504T12Z_MSC_GDPS_TotalTotalsIndex_Sfc_LatLon0.15_PT015H.grib2 2026-05-04 16:08 6.2M
20260504T12Z_MSC_GDPS_UVIndex-ClearSky_Sfc_LatLon0.15_PT015H.grib2 2026-05-04 17:16 1.0M
20260504T12Z_MSC_GDPS_UVIndex_Sfc_LatLon0.15_PT015H.grib2 2026-05-04 17:16 1.5M
20260504T12Z_MSC_GDPS_UpwardLongwaveRadiationFlux_NTAtm_LatLon0.15_PT015H.grib2 2026-05-04 16:08 1.1M
20260504T12Z_MSC_GDPS_VerticalVelocity_IsbL-0200_LatLon0.15_PT015H.grib2 2026-05-04 16:08 1.2M
20260504T12Z_MSC_GDPS_VerticalVelocity_IsbL-0250_LatLon0.15_PT015H.grib2 2026-05-04 16:08 1.0M
20260504T12Z_MSC_GDPS_VerticalVelocity_IsbL-0500_LatLon0.15_PT015H.grib2 2026-05-04 16:08 1.0M
20260504T12Z_MSC_GDPS_VerticalVelocity_IsbL-0600_LatLon0.15_PT015H.grib2 2026-05-04 16:08 1.3M
20260504T12Z_MSC_GDPS_VerticalVelocity_IsbL-0700_LatLon0.15_PT015H.grib2 2026-05-04 16:08 1.4M
20260504T12Z_MSC_GDPS_VerticalVelocity_IsbL-0850_LatLon0.15_PT015H.grib2 2026-05-04 16:08 1.3M
20260504T12Z_MSC_GDPS_WindChill_Sfc_LatLon0.15_PT015H.grib2 2026-05-04 16:08 5.3M
20260504T12Z_MSC_GDPS_WindDir_AGL-10m_LatLon0.15_PT015H.grib2 2026-05-04 16:08 1.3M
20260504T12Z_MSC_GDPS_WindDir_AGL-120m_LatLon0.15_PT015H.grib2 2026-05-04 16:08 1.3M
20260504T12Z_MSC_GDPS_WindDir_AGL-40m_LatLon0.15_PT015H.grib2 2026-05-04 16:08 1.4M
20260504T12Z_MSC_GDPS_WindDir_AGL-80m_LatLon0.15_PT015H.grib2 2026-05-04 16:08 1.3M
20260504T12Z_MSC_GDPS_WindDir_IsbL-0001_LatLon0.15_PT015H.grib2 2026-05-04 16:08 680K
20260504T12Z_MSC_GDPS_WindDir_IsbL-0005_LatLon0.15_PT015H.grib2 2026-05-04 16:08 811K
20260504T12Z_MSC_GDPS_WindDir_IsbL-0010_LatLon0.15_PT015H.grib2 2026-05-04 16:08 858K
20260504T12Z_MSC_GDPS_WindDir_IsbL-0020_LatLon0.15_PT015H.grib2 2026-05-04 16:08 951K
20260504T12Z_MSC_GDPS_WindDir_IsbL-0030_LatLon0.15_PT015H.grib2 2026-05-04 16:08 945K
20260504T12Z_MSC_GDPS_WindDir_IsbL-0050_LatLon0.15_PT015H.grib2 2026-05-04 16:08 958K
20260504T12Z_MSC_GDPS_WindDir_IsbL-0100_LatLon0.15_PT015H.grib2 2026-05-04 16:08 1.0M
20260504T12Z_MSC_GDPS_WindDir_IsbL-0150_LatLon0.15_PT015H.grib2 2026-05-04 16:08 1.0M
20260504T12Z_MSC_GDPS_WindDir_IsbL-0175_LatLon0.15_PT015H.grib2 2026-05-04 16:08 1.1M
20260504T12Z_MSC_GDPS_WindDir_IsbL-0200_LatLon0.15_PT015H.grib2 2026-05-04 16:08 1.1M
20260504T12Z_MSC_GDPS_WindDir_IsbL-0225_LatLon0.15_PT015H.grib2 2026-05-04 16:08 1.1M
20260504T12Z_MSC_GDPS_WindDir_IsbL-0250_LatLon0.15_PT015H.grib2 2026-05-04 16:08 1.1M
20260504T12Z_MSC_GDPS_WindDir_IsbL-0275_LatLon0.15_PT015H.grib2 2026-05-04 16:08 1.2M
20260504T12Z_MSC_GDPS_WindDir_IsbL-0300_LatLon0.15_PT015H.grib2 2026-05-04 16:08 1.2M
20260504T12Z_MSC_GDPS_WindDir_IsbL-0350_LatLon0.15_PT015H.grib2 2026-05-04 16:08 1.2M
20260504T12Z_MSC_GDPS_WindDir_IsbL-0400_LatLon0.15_PT015H.grib2 2026-05-04 16:08 1.3M
20260504T12Z_MSC_GDPS_WindDir_IsbL-0450_LatLon0.15_PT015H.grib2 2026-05-04 16:08 1.3M
20260504T12Z_MSC_GDPS_WindDir_IsbL-0500_LatLon0.15_PT015H.grib2 2026-05-04 16:08 1.3M
20260504T12Z_MSC_GDPS_WindDir_IsbL-0550_LatLon0.15_PT015H.grib2 2026-05-04 16:08 1.4M
20260504T12Z_MSC_GDPS_WindDir_IsbL-0600_LatLon0.15_PT015H.grib2 2026-05-04 16:08 1.4M
20260504T12Z_MSC_GDPS_WindDir_IsbL-0650_LatLon0.15_PT015H.grib2 2026-05-04 16:08 1.5M
20260504T12Z_MSC_GDPS_WindDir_IsbL-0700_LatLon0.15_PT015H.grib2 2026-05-04 16:08 1.6M
20260504T12Z_MSC_GDPS_WindDir_IsbL-0750_LatLon0.15_PT015H.grib2 2026-05-04 16:08 1.7M
20260504T12Z_MSC_GDPS_WindDir_IsbL-0800_LatLon0.15_PT015H.grib2 2026-05-04 16:08 1.8M
20260504T12Z_MSC_GDPS_WindDir_IsbL-0850_LatLon0.15_PT015H.grib2 2026-05-04 16:08 1.9M
20260504T12Z_MSC_GDPS_WindDir_IsbL-0875_LatLon0.15_PT015H.grib2 2026-05-04 16:08 1.9M
20260504T12Z_MSC_GDPS_WindDir_IsbL-0900_LatLon0.15_PT015H.grib2 2026-05-04 16:08 1.9M
20260504T12Z_MSC_GDPS_WindDir_IsbL-0925_LatLon0.15_PT015H.grib2 2026-05-04 16:08 1.9M
20260504T12Z_MSC_GDPS_WindDir_IsbL-0950_LatLon0.15_PT015H.grib2 2026-05-04 16:08 1.9M
20260504T12Z_MSC_GDPS_WindDir_IsbL-0970_LatLon0.15_PT015H.grib2 2026-05-04 16:08 2.0M
20260504T12Z_MSC_GDPS_WindDir_IsbL-0985_LatLon0.15_PT015H.grib2 2026-05-04 16:08 2.0M
20260504T12Z_MSC_GDPS_WindDir_IsbL-1000_LatLon0.15_PT015H.grib2 2026-05-04 16:08 2.0M
20260504T12Z_MSC_GDPS_WindDir_IsbL-1015_LatLon0.15_PT015H.grib2 2026-05-04 16:08 2.0M
20260504T12Z_MSC_GDPS_WindGust-Max_AGL-10m_LatLon0.15_PT015H.grib2 2026-05-04 16:08 1.8M
20260504T12Z_MSC_GDPS_WindGust-Min_AGL-10m_LatLon0.15_PT015H.grib2 2026-05-04 16:08 2.1M
20260504T12Z_MSC_GDPS_WindGust_AGL-10m_LatLon0.15_PT015H.grib2 2026-05-04 16:08 2.1M
20260504T12Z_MSC_GDPS_WindSpeed_AGL-10m_LatLon0.15_PT015H.grib2 2026-05-04 16:08 1.1M
20260504T12Z_MSC_GDPS_WindSpeed_AGL-120m_LatLon0.15_PT015H.grib2 2026-05-04 16:08 1.2M
20260504T12Z_MSC_GDPS_WindSpeed_AGL-40m_LatLon0.15_PT015H.grib2 2026-05-04 16:08 1.2M
20260504T12Z_MSC_GDPS_WindSpeed_AGL-80m_LatLon0.15_PT015H.grib2 2026-05-04 16:08 1.2M
20260504T12Z_MSC_GDPS_WindSpeed_IsbL-0001_LatLon0.15_PT015H.grib2 2026-05-04 16:08 652K
20260504T12Z_MSC_GDPS_WindSpeed_IsbL-0005_LatLon0.15_PT015H.grib2 2026-05-04 16:08 700K
20260504T12Z_MSC_GDPS_WindSpeed_IsbL-0010_LatLon0.15_PT015H.grib2 2026-05-04 16:08 637K
20260504T12Z_MSC_GDPS_WindSpeed_IsbL-0020_LatLon0.15_PT015H.grib2 2026-05-04 16:08 672K
20260504T12Z_MSC_GDPS_WindSpeed_IsbL-0030_LatLon0.15_PT015H.grib2 2026-05-04 16:08 872K
20260504T12Z_MSC_GDPS_WindSpeed_IsbL-0050_LatLon0.15_PT015H.grib2 2026-05-04 16:08 918K
20260504T12Z_MSC_GDPS_WindSpeed_IsbL-0100_LatLon0.15_PT015H.grib2 2026-05-04 16:08 1.1M
20260504T12Z_MSC_GDPS_WindSpeed_IsbL-0150_LatLon0.15_PT015H.grib2 2026-05-04 16:08 939K
20260504T12Z_MSC_GDPS_WindSpeed_IsbL-0175_LatLon0.15_PT015H.grib2 2026-05-04 16:08 1.0M
20260504T12Z_MSC_GDPS_WindSpeed_IsbL-0200_LatLon0.15_PT015H.grib2 2026-05-04 16:08 1.0M
20260504T12Z_MSC_GDPS_WindSpeed_IsbL-0225_LatLon0.15_PT015H.grib2 2026-05-04 16:08 1.1M
20260504T12Z_MSC_GDPS_WindSpeed_IsbL-0250_LatLon0.15_PT015H.grib2 2026-05-04 16:08 1.1M
20260504T12Z_MSC_GDPS_WindSpeed_IsbL-0275_LatLon0.15_PT015H.grib2 2026-05-04 16:08 1.1M
20260504T12Z_MSC_GDPS_WindSpeed_IsbL-0300_LatLon0.15_PT015H.grib2 2026-05-04 16:08 1.1M
20260504T12Z_MSC_GDPS_WindSpeed_IsbL-0350_LatLon0.15_PT015H.grib2 2026-05-04 16:08 1.1M
20260504T12Z_MSC_GDPS_WindSpeed_IsbL-0400_LatLon0.15_PT015H.grib2 2026-05-04 16:08 1.1M
20260504T12Z_MSC_GDPS_WindSpeed_IsbL-0450_LatLon0.15_PT015H.grib2 2026-05-04 16:08 1.1M
20260504T12Z_MSC_GDPS_WindSpeed_IsbL-0500_LatLon0.15_PT015H.grib2 2026-05-04 16:08 1.1M
20260504T12Z_MSC_GDPS_WindSpeed_IsbL-0550_LatLon0.15_PT015H.grib2 2026-05-04 16:08 1.1M
20260504T12Z_MSC_GDPS_WindSpeed_IsbL-0600_LatLon0.15_PT015H.grib2 2026-05-04 16:08 1.1M
20260504T12Z_MSC_GDPS_WindSpeed_IsbL-0650_LatLon0.15_PT015H.grib2 2026-05-04 16:08 1.4M
20260504T12Z_MSC_GDPS_WindSpeed_IsbL-0700_LatLon0.15_PT015H.grib2 2026-05-04 16:08 1.5M
20260504T12Z_MSC_GDPS_WindSpeed_IsbL-0750_LatLon0.15_PT015H.grib2 2026-05-04 16:08 1.5M
20260504T12Z_MSC_GDPS_WindSpeed_IsbL-0800_LatLon0.15_PT015H.grib2 2026-05-04 16:08 1.6M
20260504T12Z_MSC_GDPS_WindSpeed_IsbL-0850_LatLon0.15_PT015H.grib2 2026-05-04 16:08 1.4M
20260504T12Z_MSC_GDPS_WindSpeed_IsbL-0875_LatLon0.15_PT015H.grib2 2026-05-04 16:08 1.5M
20260504T12Z_MSC_GDPS_WindSpeed_IsbL-0900_LatLon0.15_PT015H.grib2 2026-05-04 16:08 1.5M
20260504T12Z_MSC_GDPS_WindSpeed_IsbL-0925_LatLon0.15_PT015H.grib2 2026-05-04 16:08 1.8M
20260504T12Z_MSC_GDPS_WindSpeed_IsbL-0950_LatLon0.15_PT015H.grib2 2026-05-04 16:08 1.8M
20260504T12Z_MSC_GDPS_WindSpeed_IsbL-0970_LatLon0.15_PT015H.grib2 2026-05-04 16:08 1.9M
20260504T12Z_MSC_GDPS_WindSpeed_IsbL-0985_LatLon0.15_PT015H.grib2 2026-05-04 16:08 1.9M
20260504T12Z_MSC_GDPS_WindSpeed_IsbL-1000_LatLon0.15_PT015H.grib2 2026-05-04 16:08 1.9M
20260504T12Z_MSC_GDPS_WindSpeed_IsbL-1015_LatLon0.15_PT015H.grib2 2026-05-04 16:08 1.8M
20260504T12Z_MSC_GDPS_WindU_AGL-10m_LatLon0.15_PT015H.grib2 2026-05-04 16:08 1.3M
20260504T12Z_MSC_GDPS_WindU_AGL-120m_LatLon0.15_PT015H.grib2 2026-05-04 16:08 1.0M
20260504T12Z_MSC_GDPS_WindU_AGL-40m_LatLon0.15_PT015H.grib2 2026-05-04 16:08 959K
20260504T12Z_MSC_GDPS_WindU_AGL-80m_LatLon0.15_PT015H.grib2 2026-05-04 16:08 1.0M
20260504T12Z_MSC_GDPS_WindU_IsbL-0001_LatLon0.15_PT015H.grib2 2026-05-04 16:08 507K
20260504T12Z_MSC_GDPS_WindU_IsbL-0005_LatLon0.15_PT015H.grib2 2026-05-04 16:08 702K
20260504T12Z_MSC_GDPS_WindU_IsbL-0010_LatLon0.15_PT015H.grib2 2026-05-04 16:08 712K
20260504T12Z_MSC_GDPS_WindU_IsbL-0020_LatLon0.15_PT015H.grib2 2026-05-04 16:08 737K
20260504T12Z_MSC_GDPS_WindU_IsbL-0030_LatLon0.15_PT015H.grib2 2026-05-04 16:08 749K
20260504T12Z_MSC_GDPS_WindU_IsbL-0050_LatLon0.15_PT015H.grib2 2026-05-04 16:08 779K
20260504T12Z_MSC_GDPS_WindU_IsbL-0100_LatLon0.15_PT015H.grib2 2026-05-04 16:08 924K
20260504T12Z_MSC_GDPS_WindU_IsbL-0150_LatLon0.15_PT015H.grib2 2026-05-04 16:08 1.0M
20260504T12Z_MSC_GDPS_WindU_IsbL-0175_LatLon0.15_PT015H.grib2 2026-05-04 16:08 1.0M
20260504T12Z_MSC_GDPS_WindU_IsbL-0200_LatLon0.15_PT015H.grib2 2026-05-04 16:08 835K
20260504T12Z_MSC_GDPS_WindU_IsbL-0225_LatLon0.15_PT015H.grib2 2026-05-04 16:08 848K
20260504T12Z_MSC_GDPS_WindU_IsbL-0250_LatLon0.15_PT015H.grib2 2026-05-04 16:08 911K
20260504T12Z_MSC_GDPS_WindU_IsbL-0275_LatLon0.15_PT015H.grib2 2026-05-04 16:08 939K
20260504T12Z_MSC_GDPS_WindU_IsbL-0300_LatLon0.15_PT015H.grib2 2026-05-04 16:08 934K
20260504T12Z_MSC_GDPS_WindU_IsbL-0350_LatLon0.15_PT015H.grib2 2026-05-04 16:08 894K
20260504T12Z_MSC_GDPS_WindU_IsbL-0400_LatLon0.15_PT015H.grib2 2026-05-04 16:08 895K
20260504T12Z_MSC_GDPS_WindU_IsbL-0450_LatLon0.15_PT015H.grib2 2026-05-04 16:08 898K
20260504T12Z_MSC_GDPS_WindU_IsbL-0500_LatLon0.15_PT015H.grib2 2026-05-04 16:08 1.1M
20260504T12Z_MSC_GDPS_WindU_IsbL-0550_LatLon0.15_PT015H.grib2 2026-05-04 16:08 1.1M
20260504T12Z_MSC_GDPS_WindU_IsbL-0600_LatLon0.15_PT015H.grib2 2026-05-04 16:08 1.1M
20260504T12Z_MSC_GDPS_WindU_IsbL-0650_LatLon0.15_PT015H.grib2 2026-05-04 16:08 1.2M
20260504T12Z_MSC_GDPS_WindU_IsbL-0700_LatLon0.15_PT015H.grib2 2026-05-04 16:08 1.2M
20260504T12Z_MSC_GDPS_WindU_IsbL-0750_LatLon0.15_PT015H.grib2 2026-05-04 16:08 1.3M
20260504T12Z_MSC_GDPS_WindU_IsbL-0800_LatLon0.15_PT015H.grib2 2026-05-04 16:08 1.3M
20260504T12Z_MSC_GDPS_WindU_IsbL-0850_LatLon0.15_PT015H.grib2 2026-05-04 16:08 1.4M
20260504T12Z_MSC_GDPS_WindU_IsbL-0875_LatLon0.15_PT015H.grib2 2026-05-04 16:08 1.5M
20260504T12Z_MSC_GDPS_WindU_IsbL-0900_LatLon0.15_PT015H.grib2 2026-05-04 16:08 1.5M
20260504T12Z_MSC_GDPS_WindU_IsbL-0925_LatLon0.15_PT015H.grib2 2026-05-04 16:08 1.5M
20260504T12Z_MSC_GDPS_WindU_IsbL-0950_LatLon0.15_PT015H.grib2 2026-05-04 16:08 1.4M
20260504T12Z_MSC_GDPS_WindU_IsbL-0970_LatLon0.15_PT015H.grib2 2026-05-04 16:08 1.4M
20260504T12Z_MSC_GDPS_WindU_IsbL-0985_LatLon0.15_PT015H.grib2 2026-05-04 16:08 1.4M
20260504T12Z_MSC_GDPS_WindU_IsbL-1000_LatLon0.15_PT015H.grib2 2026-05-04 16:08 1.4M
20260504T12Z_MSC_GDPS_WindU_IsbL-1015_LatLon0.15_PT015H.grib2 2026-05-04 16:08 1.3M
20260504T12Z_MSC_GDPS_WindV_AGL-10m_LatLon0.15_PT015H.grib2 2026-05-04 16:08 1.6M
20260504T12Z_MSC_GDPS_WindV_AGL-120m_LatLon0.15_PT015H.grib2 2026-05-04 16:08 963K
20260504T12Z_MSC_GDPS_WindV_AGL-40m_LatLon0.15_PT015H.grib2 2026-05-04 16:08 958K
20260504T12Z_MSC_GDPS_WindV_AGL-80m_LatLon0.15_PT015H.grib2 2026-05-04 16:08 963K
20260504T12Z_MSC_GDPS_WindV_IsbL-0001_LatLon0.15_PT015H.grib2 2026-05-04 16:08 721K
20260504T12Z_MSC_GDPS_WindV_IsbL-0005_LatLon0.15_PT015H.grib2 2026-05-04 16:08 866K
20260504T12Z_MSC_GDPS_WindV_IsbL-0010_LatLon0.15_PT015H.grib2 2026-05-04 16:08 893K
20260504T12Z_MSC_GDPS_WindV_IsbL-0020_LatLon0.15_PT015H.grib2 2026-05-04 16:08 860K
20260504T12Z_MSC_GDPS_WindV_IsbL-0030_LatLon0.15_PT015H.grib2 2026-05-04 16:08 943K
20260504T12Z_MSC_GDPS_WindV_IsbL-0050_LatLon0.15_PT015H.grib2 2026-05-04 16:08 910K
20260504T12Z_MSC_GDPS_WindV_IsbL-0100_LatLon0.15_PT015H.grib2 2026-05-04 16:08 853K
20260504T12Z_MSC_GDPS_WindV_IsbL-0150_LatLon0.15_PT015H.grib2 2026-05-04 16:08 1.0M
20260504T12Z_MSC_GDPS_WindV_IsbL-0175_LatLon0.15_PT015H.grib2 2026-05-04 16:08 1.0M
20260504T12Z_MSC_GDPS_WindV_IsbL-0200_LatLon0.15_PT015H.grib2 2026-05-04 16:08 835K
20260504T12Z_MSC_GDPS_WindV_IsbL-0225_LatLon0.15_PT015H.grib2 2026-05-04 16:08 903K
20260504T12Z_MSC_GDPS_WindV_IsbL-0250_LatLon0.15_PT015H.grib2 2026-05-04 16:08 906K
20260504T12Z_MSC_GDPS_WindV_IsbL-0275_LatLon0.15_PT015H.grib2 2026-05-04 16:08 934K
20260504T12Z_MSC_GDPS_WindV_IsbL-0300_LatLon0.15_PT015H.grib2 2026-05-04 16:08 929K
20260504T12Z_MSC_GDPS_WindV_IsbL-0350_LatLon0.15_PT015H.grib2 2026-05-04 16:08 944K
20260504T12Z_MSC_GDPS_WindV_IsbL-0400_LatLon0.15_PT015H.grib2 2026-05-04 16:08 887K
20260504T12Z_MSC_GDPS_WindV_IsbL-0450_LatLon0.15_PT015H.grib2 2026-05-04 16:08 888K
20260504T12Z_MSC_GDPS_WindV_IsbL-0500_LatLon0.15_PT015H.grib2 2026-05-04 16:08 1.1M
20260504T12Z_MSC_GDPS_WindV_IsbL-0550_LatLon0.15_PT015H.grib2 2026-05-04 16:08 1.1M
20260504T12Z_MSC_GDPS_WindV_IsbL-0600_LatLon0.15_PT015H.grib2 2026-05-04 16:08 1.1M
20260504T12Z_MSC_GDPS_WindV_IsbL-0650_LatLon0.15_PT015H.grib2 2026-05-04 16:08 1.2M
20260504T12Z_MSC_GDPS_WindV_IsbL-0700_LatLon0.15_PT015H.grib2 2026-05-04 16:08 1.2M
20260504T12Z_MSC_GDPS_WindV_IsbL-0750_LatLon0.15_PT015H.grib2 2026-05-04 16:08 1.3M
20260504T12Z_MSC_GDPS_WindV_IsbL-0800_LatLon0.15_PT015H.grib2 2026-05-04 16:08 1.3M
20260504T12Z_MSC_GDPS_WindV_IsbL-0850_LatLon0.15_PT015H.grib2 2026-05-04 16:08 1.4M
20260504T12Z_MSC_GDPS_WindV_IsbL-0875_LatLon0.15_PT015H.grib2 2026-05-04 16:08 1.4M
20260504T12Z_MSC_GDPS_WindV_IsbL-0900_LatLon0.15_PT015H.grib2 2026-05-04 16:08 1.5M
20260504T12Z_MSC_GDPS_WindV_IsbL-0925_LatLon0.15_PT015H.grib2 2026-05-04 16:08 1.4M
20260504T12Z_MSC_GDPS_WindV_IsbL-0950_LatLon0.15_PT015H.grib2 2026-05-04 16:08 1.4M
20260504T12Z_MSC_GDPS_WindV_IsbL-0970_LatLon0.15_PT015H.grib2 2026-05-04 16:08 1.4M
20260504T12Z_MSC_GDPS_WindV_IsbL-0985_LatLon0.15_PT015H.grib2 2026-05-04 16:08 1.4M
20260504T12Z_MSC_GDPS_WindV_IsbL-1000_LatLon0.15_PT015H.grib2 2026-05-04 16:08 1.4M
20260504T12Z_MSC_GDPS_WindV_IsbL-1015_LatLon0.15_PT015H.grib2 2026-05-04 16:08 1.6M